Location: B�retswil
(47.3376°N, 8.8534°E)
Time: 02:05:42
(UTC+00:00)

SL-16 R/B - Pass Details

Date: 03 March 2021
Orbit: 843 x 845 km, 71.0° (Epoch: 16 April)

Event Time Altitude Azimuth Distance (km) Brightness Sun altitude
Rises 19:31:44 0° 246° (WSW) 3,396 6.1 -24.1°
Reaches altitude 10° 19:34:37 10° 259° (W) 2,465 5.4 -24.5°
Maximum altitude 19:39:13 25° 314° (NW) 1,650 4.3 -25.3°
Drops below altitude 10° 19:43:51 10° 9° (N) 2,477 4.7 -26.0°
Sets 19:46:46 0° 22° (NNE) 3,416 5.3 -26.5°
